When you browse on this site, cookies collect data to enhance your experience and personalize the content and advertising you see.
Visit our Privacy Policy to learn more. By continuing to use the site, you agree to this use of cookies and data.
  • In Hungary
  • List of Countries
  • For 7 days
  • Water Temperature
  • Satellite Maps
  • Weather Map
  • News
  • Weather Widgets
  • user-avatar
    Login

    Hourly Weather Grachevka

    Today, 20 November, Tuesday

    Time Temperature Precipitation Wind Pressure Humidity
    00:00 -3°C° 0 mm 2 mps 762 mmHg 94%
    01:00 -3°C° 0 mm 2 mps 762 mmHg 94%
    02:00 -2°C° 0 mm 2 mps 762 mmHg 95%
    03:00 -2°C° 0 mm 2 mps 761 mmHg 96%
    04:00 -2°C° 0 mm 2 mps 761 mmHg 96%
    05:00 -2°C° 0 mm 2 mps 761 mmHg 96%
    06:00 -2°C° 0 mm 2 mps 761 mmHg 96%
    07:00 -2°C° 0.1 mm 2 mps 761 mmHg 95%
    08:00 -2°C° 0.1 mm 2 mps 761 mmHg 94%
    09:00 -2°C° 0 mm 2 mps 760 mmHg 92%
    10:00 -1°C° 0.1 mm 2 mps 760 mmHg 91%
    11:00 -1°C° 0.1 mm 2 mps 760 mmHg 89%
    12:00 -1°C° 0.1 mm 2 mps 760 mmHg 88%
    13:00 -1°C° 0.2 mm 2 mps 760 mmHg 89%
    14:00 -1°C° 0.2 mm 2 mps 759 mmHg 91%
    15:00 -1°C° 0.2 mm 2 mps 759 mmHg 93%
    16:00 -2°C° 0.1 mm 2 mps 759 mmHg 94%
    17:00 -2°C° 0.1 mm 2 mps 758 mmHg 95%
    18:00 -2°C° 0.1 mm 2 mps 758 mmHg 96%
    19:00 -2°C° 0.1 mm 2 mps 758 mmHg 95%
    20:00 -3°C° 0.1 mm 2 mps 758 mmHg 95%
    21:00 -3°C° 0.1 mm 2 mps 757 mmHg 95%
    22:00 -3°C° 0 mm 2 mps 757 mmHg 94%
    23:00 -3°C° 0 mm 2 mps 757 mmHg 93%

    Tomorrow, 21 November, Wednesday

    Time Temperature Precipitation Wind Pressure Humidity
    00:00 -4°C° 0 mm 2 mps 757 mmHg 92%
    01:00 -4°C° 0 mm 2 mps 756 mmHg 92%
    02:00 -4°C° 0 mm 2 mps 756 mmHg 92%
    03:00 -5°C° 0 mm 2 mps 756 mmHg 92%
    04:00 -5°C° 0 mm 3 mps 755 mmHg 91%
    05:00 -5°C° 0 mm 3 mps 754 mmHg 89%
    06:00 -5°C° 0 mm 3 mps 754 mmHg 88%
    07:00 -5°C° 0.2 mm 4 mps 753 mmHg 87%
    08:00 -5°C° 0.2 mm 5 mps 753 mmHg 87%
    09:00 -5°C° 0.2 mm 5 mps 752 mmHg 86%
    10:00 -5°C° 0.2 mm 5 mps 752 mmHg 84%
    11:00 -5°C° 0.2 mm 6 mps 751 mmHg 82%
    12:00 -4°C° 0.2 mm 6 mps 751 mmHg 80%
    13:00 -4°C° 0 mm 5 mps 751 mmHg 80%
    14:00 -5°C° 0 mm 5 mps 750 mmHg 80%
    15:00 -5°C° 0 mm 5 mps 750 mmHg 79%
    16:00 -5°C° 0 mm 5 mps 750 mmHg 81%
    17:00 -5°C° 0 mm 5 mps 750 mmHg 82%
    18:00 -5°C° 0 mm 5 mps 750 mmHg 84%
    19:00 -5°C° 0 mm 5 mps 750 mmHg 81%
    20:00 -6°C° 0 mm 5 mps 750 mmHg 78%
    21:00 -7°C° 0 mm 5 mps 750 mmHg 75%
    22:00 -7°C° 0 mm 5 mps 750 mmHg 75%
    23:00 -7°C° 0 mm 5 mps 750 mmHg 75%

    Day after tomorrow, 22 November, Thursday

    Time Temperature Precipitation Wind Pressure Humidity
    00:00 -8°C° 0 mm 5 mps 750 mmHg 75%
    01:00 -8°C° 0 mm 4 mps 750 mmHg 77%
    02:00 -8°C° 0 mm 4 mps 751 mmHg 79%
    03:00 -8°C° 0 mm 4 mps 751 mmHg 81%
    04:00 -9°C° 0 mm 4 mps 751 mmHg 82%
    05:00 -9°C° 0 mm 4 mps 751 mmHg 83%
    06:00 -9°C° 0 mm 4 mps 751 mmHg 84%
    07:00 -9°C° 0 mm 4 mps 751 mmHg 83%
    08:00 -8°C° 0 mm 4 mps 751 mmHg 82%
    09:00 -8°C° 0 mm 4 mps 751 mmHg 82%
    10:00 -7°C° 0 mm 4 mps 751 mmHg 79%
    11:00 -7°C° 0 mm 4 mps 750 mmHg 76%
    12:00 -5°C° 0 mm 4 mps 750 mmHg 74%
    13:00 -5°C° 0 mm 4 mps 750 mmHg 75%
    14:00 -5°C° 0 mm 4 mps 750 mmHg 75%
    15:00 -5°C° 0 mm 4 mps 749 mmHg 76%
    16:00 -6°C° 0 mm 5 mps 749 mmHg 76%
    17:00 -6°C° 0 mm 5 mps 748 mmHg 76%
    18:00 -7°C° 0 mm 5 mps 748 mmHg 76%
    19:00 -8°C° 0 mm 6 mps 747 mmHg 78%
    20:00 -8°C° 0 mm 6 mps 746 mmHg 79%
    21:00 -8°C° 0 mm 6 mps 746 mmHg 80%
    22:00 -8°C° 0.1 mm 6 mps 745 mmHg 81%
    23:00 -8°C° 0.1 mm 7 mps 744 mmHg 83%

    23 November, Friday

    Time Temperature Precipitation Wind Pressure Humidity
    00:00 -8°C° 0.1 mm 7 mps 744 mmHg 84%
    01:00 -8°C° 0.4 mm 7 mps 742 mmHg 86%
    02:00 -8°C° 0.4 mm 7 mps 741 mmHg 87%
    03:00 -8°C° 0.4 mm 8 mps 740 mmHg 89%
    04:00 -8°C° 0.3 mm 7 mps 739 mmHg 87%
    05:00 -7°C° 0.3 mm 7 mps 739 mmHg 85%
    06:00 -6°C° 0.3 mm 6 mps 738 mmHg 83%
    07:00 -8°C° 0.1 mm 6 mps 738 mmHg 83%
    08:00 -8°C° 0.1 mm 7 mps 738 mmHg 82%
    09:00 -8°C° 0.1 mm 7 mps 739 mmHg 82%
    10:00 -8°C° 0.3 mm 8 mps 740 mmHg 82%
    11:00 -9°C° 0.3 mm 9 mps 740 mmHg 82%
    12:00 -9°C° 0.3 mm 10 mps 741 mmHg 83%
    13:00 -10°C° 0.2 mm 10 mps 743 mmHg 81%
    14:00 -12°C° 0.2 mm 10 mps 744 mmHg 79%
    15:00 -13°C° 0.2 mm 11 mps 746 mmHg 77%
    16:00 -13°C° 0 mm 10 mps 747 mmHg 76%
    17:00 -13°C° 0 mm 10 mps 749 mmHg 76%
    18:00 -14°C° 0 mm 9 mps 751 mmHg 75%
    19:00 -14°C° 0 mm 9 mps 752 mmHg 77%
    20:00 -13°C° 0 mm 8 mps 753 mmHg 79%
    21:00 -13°C° 0 mm 7 mps 754 mmHg 81%
    22:00 -13°C° 0 mm 7 mps 755 mmHg 81%
    23:00 -12°C° 0 mm 6 mps 756 mmHg 82%

    24 November, Saturday

    Time Temperature Precipitation Wind Pressure Humidity
    00:00 -12°C° 0 mm 6 mps 756 mmHg 83%
    01:00 -12°C° 0 mm 5 mps 757 mmHg 85%
    02:00 -13°C° 0 mm 5 mps 757 mmHg 86%
    03:00 -12°C° 0 mm 4 mps 758 mmHg 88%
    04:00 -12°C° 0 mm 4 mps 758 mmHg 89%
    05:00 -12°C° 0 mm 4 mps 758 mmHg 89%
    06:00 -12°C° 0 mm 4 mps 759 mmHg 90%
    07:00 -11°C° 0 mm 4 mps 759 mmHg 87%
    08:00 -12°C° 0 mm 5 mps 759 mmHg 84%
    09:00 -11°C° 0 mm 5 mps 759 mmHg 81%
    10:00 -11°C° 0 mm 5 mps 759 mmHg 79%
    11:00 -10°C° 0 mm 6 mps 759 mmHg 77%
    12:00 -9°C° 0 mm 6 mps 759 mmHg 75%
    13:00 -9°C° 0 mm 6 mps 759 mmHg 76%
    14:00 -9°C° 0 mm 6 mps 759 mmHg 77%
    15:00 -9°C° 0 mm 6 mps 759 mmHg 77%
    16:00 -9°C° 0 mm 6 mps 758 mmHg 77%
    17:00 -9°C° 0 mm 7 mps 758 mmHg 77%
    18:00 -9°C° 0 mm 7 mps 758 mmHg 77%
    19:00 -9°C° 0 mm 7 mps 758 mmHg 77%
    20:00 -9°C° 0 mm 7 mps 757 mmHg 76%
    21:00 -9°C° 0 mm 7 mps 757 mmHg 76%
    22:00 -9°C° 0 mm 7 mps 757 mmHg 76%
    23:00 -9°C° 0 mm 7 mps 757 mmHg 77%

    25 November, Sunday

    Time Temperature Precipitation Wind Pressure Humidity
    00:00 -9°C° 0 mm 7 mps 757 mmHg 77%
    01:00 -9°C° 0 mm 7 mps 756 mmHg 78%
    02:00 -9°C° 0 mm 7 mps 756 mmHg 79%
    03:00 -9°C° 0 mm 7 mps 756 mmHg 79%
    04:00 -9°C° 0 mm 7 mps 756 mmHg 80%
    05:00 -9°C° 0 mm 7 mps 756 mmHg 81%
    06:00 -9°C° 0 mm 7 mps 756 mmHg 82%
    07:00 -9°C° 0 mm 7 mps 756 mmHg 82%
    08:00 -8°C° 0 mm 6 mps 756 mmHg 82%
    09:00 -8°C° 0 mm 6 mps 756 mmHg 83%
    10:00 -8°C° 0.1 mm 6 mps 756 mmHg 83%
    11:00 -6°C° 0.1 mm 6 mps 757 mmHg 84%
    12:00 -6°C° 0.1 mm 5 mps 757 mmHg 84%
    13:00 -6°C° 0.1 mm 5 mps 757 mmHg 86%
    14:00 -5°C° 0.1 mm 4 mps 757 mmHg 87%
    15:00 -5°C° 0.1 mm 4 mps 757 mmHg 89%
    16:00 -5°C° 0.1 mm 3 mps 757 mmHg 90%
    17:00 -6°C° 0.1 mm 3 mps 757 mmHg 91%
    18:00 -6°C° 0.1 mm 3 mps 757 mmHg 92%
    19:00 -6°C° 0 mm 3 mps 757 mmHg 92%
    20:00 -6°C° 0 mm 3 mps 757 mmHg 92%
    21:00 -6°C° 0 mm 3 mps 757 mmHg 92%
    22:00 -6°C° 0.1 mm 3 mps 757 mmHg 92%
    23:00 -6°C° 0.1 mm 3 mps 757 mmHg 92%
    Show more